Overview Statistics Trail Chart Weather Telemetry Raw packets
 

This is the latest recevied weather packets stored in our database for station/object KF0WJA. If no packets are shown the sender has not sent any weather packets the latest 10 day(s).

<< 77 78 79 80 81 82 83 >>
Time Temp. Humidity Pressure Rain* Wind** Luminosity Snow
1788108372 35.56° C 42% 1015.5 hPa 0 mm - 661 W/m² -
1788108067 35° C 42% 1016 hPa 0 mm - 676 W/m² -
1788107764 35° C 42% 1015.8 hPa 0 mm - 673 W/m² -
1788107463 34.44° C 43% 1015.9 hPa 0 mm - 653 W/m² -
1788107159 35° C 43% 1015.9 hPa 0 mm - 606 W/m² -
1788106855 34.44° C 43% 1016.1 hPa 0 mm - 626 W/m² -
1788106554 33.89° C 44% 1015.9 hPa 0 mm - 623 W/m² -
1788106249 33.33° C 44% 1016 hPa 0 mm - 644 W/m² -
1788105946 33.33° C 45% 1015.9 hPa 0 mm - 621 W/m² -
1788105641 33.33° C 44% 1015.8 hPa 0 mm - 605 W/m² -
1788105337 33.89° C 45% 1015.8 hPa 0 mm - 599 W/m² -
1788105032 33.33° C 45% 1015.9 hPa 0 mm - 574 W/m² -
1788104727 33.33° C 46% 1016.1 hPa 0 mm - 542 W/m² -
1788104424 32.78° C 47% 1015.9 hPa 0 mm - 552 W/m² -
1788104120 32.78° C 46% 1016 hPa 0 mm - 537 W/m² -
1788103820 31.67° C 48% 1015.9 hPa 0 mm - 516 W/m² -
1788103514 31.67° C 49% 1016 hPa 0 mm - 486 W/m² -
1788103213 31.67° C 49% 1016 hPa 0 mm - 458 W/m² -
1788102913 31.67° C 50% 1016 hPa 0 mm - 432 W/m² -
1788102608 31.11° C 50% 1015.9 hPa 0 mm - 403 W/m² -
1788102308 31.11° C 50% 1016 hPa 0 mm - 381 W/m² -
1788102002 31.11° C 51% 1016 hPa 0 mm - 364 W/m² -
1788101702 30.56° C 51% 1016.2 hPa 0 mm - 334 W/m² -
1788101397 30° C 52% 1016.2 hPa 0 mm - 326 W/m² -
1788101093 30° C 53% 1016 hPa 0 mm - 321 W/m² -

* Rain latest hour (hover to see other rain measurements)
** Current wind speed in m/s (hover to see current wind gust speed)